Maxton, NC

11:25 PM EDT on August 31, 2016 (GMT -0400)
Laurinburg-Maxton

Weather History for KMEB - January, 2014

Change the Weather History Date:

Friday, January 3, 2014

  Actual Average (KLBT) Record (KLBT)
Temperature  
Mean Temperature 34 °F 43 °F  
Max Temperature 43 °F 53 °F 75 °F (2000)
Min Temperature 23 °F 34 °F 17 °F (2001)
Degree Days  
Heating Degree Days 30 22  
Month to date heating degree days 65  
Since 1 July heating degree days 1115  
Cooling Degree Days 0 0  
Month to date cooling degree days 0  
Year to date cooling degree days 0  
Moisture  
Dew Point 13 °F    
Average Humidity 50    
Maximum Humidity 74    
Minimum Humidity 26    
Precipitation  
Precipitation 0.00 in 0.09 in 0.16 in (2002)
Month to date precipitation 0.26  
Year to date precipitation 0.26  
Sea Level Pressure  
Sea Level Pressure 30.23 in    
Wind  
Wind Speed 14 mph (North)    
Max Wind Speed 22 mph    
Max Gust Speed 39 mph    
Visibility 10 miles    
Events      
T = Trace of Precipitation, MM = Missing Value Source: NWS Daily Summary

Daily Weather History Graph

Daily Weather History Graph

Search for Another Location

Airport or City:

Trip Planner

Search our weather history database for the weather conditions in past years. The results will help you decide how hot, cold, wet, or windy it might be!

Date:

Astronomy

Jan. 03, 2014 Rise Set
Actual Time 7:25 AM EST 5:18 PM EST
Civil Twilight 6:57 AM EST 5:46 PM EST
Nautical Twilight 6:25 AM EST 6:18 PM EST
Astronomical Twilight 5:55 AM EST 6:48 PM EST
Moon 8:56 AM EST (1/3) 8:18 PM EST (1/3)
Length of Visible Light 10h 49m
Length of Day
9h 53m
Waxing Crescent, 8% of the Moon is Illuminated
Jan 3
Waxing Crescent
Jan 7
First Quarter
Jan 15
Full
Jan 24
Last Quarter
Jan 30
New

Hourly Weather History & Observations

Time (EST) Temp. Windchill Dew Point Humidity Pressure Visibility Wind Dir Wind Speed Gust Speed Precip Events Conditions
12:52 AM 43.0 °F 37.2 °F 35.1 °F 74% 29.73 in 10.0 mi NW 10.4 mph 21.9 mph N/A   Mostly Cloudy
1:52 AM 41.0 °F 31.6 °F 32.0 °F 70% 29.79 in 10.0 mi WNW 20.7 mph 33.4 mph N/A   Overcast
2:52 AM 37.9 °F 27.9 °F 27.0 °F 65% 29.86 in 10.0 mi WNW 19.6 mph 26.5 mph N/A   Overcast
3:52 AM 33.1 °F 20.9 °F 16.0 °F 50% 29.93 in 10.0 mi NW 21.9 mph 39.1 mph N/A   Partly Cloudy
4:52 AM 28.9 °F 17.3 °F 12.9 °F 51% 29.99 in 10.0 mi NNW 16.1 mph 27.6 mph N/A   Clear
5:52 AM 28.0 °F 16.5 °F 10.9 °F 49% 30.06 in 10.0 mi NW 15.0 mph 26.5 mph N/A   Clear
6:52 AM 26.1 °F 13.1 °F 10.0 °F 51% 30.12 in 10.0 mi NW 17.3 mph 24.2 mph N/A   Clear
7:52 AM 26.1 °F 12.3 °F 6.1 °F 43% 30.17 in 10.0 mi NNW 19.6 mph 29.9 mph N/A   Clear
8:52 AM 27.0 °F 14.3 °F 6.1 °F 41% 30.22 in 10.0 mi North 17.3 mph 23.0 mph N/A   Clear
9:52 AM 28.9 °F 17.7 °F 7.0 °F 40% 30.27 in 10.0 mi North 15.0 mph 24.2 mph N/A   Clear
10:52 AM 30.9 °F 19.1 °F 7.0 °F 37% 30.29 in 10.0 mi North 18.4 mph 26.5 mph N/A   Clear
11:52 AM 33.1 °F 22.2 °F 8.1 °F 35% 30.30 in 10.0 mi North 17.3 mph 23.0 mph N/A   Clear
12:52 PM 35.1 °F 26.4 °F 8.1 °F 33% 30.31 in 10.0 mi North 12.7 mph 21.9 mph N/A   Clear
1:52 PM 36.0 °F 26.3 °F 6.1 °F 29% 30.30 in 10.0 mi North 16.1 mph 24.2 mph N/A   Clear
2:52 PM 37.0 °F 28.5 °F 5.0 °F 26% 30.32 in 10.0 mi NNE 13.8 mph 20.7 mph N/A   Clear
3:52 PM 35.1 °F 25.2 °F 3.9 °F 27% 30.34 in 10.0 mi NNE 16.1 mph - N/A   Clear
4:52 PM 33.1 °F 25.5 °F 5.0 °F 31% 30.36 in 10.0 mi North 9.2 mph - N/A   Clear
5:52 PM 30.0 °F 24.1 °F 14.0 °F 51% 30.40 in 10.0 mi NE 5.8 mph - N/A   Clear
6:52 PM 28.0 °F 22.8 °F 17.1 °F 63% 30.43 in 10.0 mi NE 4.6 mph - N/A   Clear
7:52 PM 27.0 °F 23.0 °F 16.0 °F 63% 30.45 in 10.0 mi NE 3.5 mph - N/A   Clear
8:52 PM 26.1 °F 21.9 °F 16.0 °F 66% 30.46 in 10.0 mi NE 3.5 mph - N/A   Clear
9:52 PM 26.1 °F 19.4 °F 16.0 °F 66% 30.46 in 10.0 mi ENE 5.8 mph - N/A   Clear
10:52 PM 26.1 °F - 14.0 °F 60% 30.47 in 10.0 mi Calm Calm - N/A   Clear
11:52 PM 23.0 °F 17.0 °F 16.0 °F 74% 30.48 in 10.0 mi North 4.6 mph - N/A   Clear